Voltar ao catálogo

METEOR 2-17 DEB

AtivoPO
NORAD 31400·DEBRIS·🇷🇺 Russia

Lançado Jan 30, 1988 de Plesetsk Cosmodrome

Loading…

Próximas Passagens (próximas 24 horas)

TLE

ObsoletoSource: Space-Track

Época: Sep 2, 2026, 12:24 UTC

1 31400U 88005V   26245.51715852  .00003760  00000-0  19071-2 0  9998
2 31400  82.5293 173.9369 0013246 353.5768   6.5238 14.15745055632293

Acompanhe METEOR 2-17 DEB em tempo real com AllMySat

Download on the App Store